| time (UTC) | temp F | wind direction | speed MPH | gust MPH | rain 1hr in | rain 24hr in | rain mn in | humidity % | barometer mb |
| 20260503013045 | 37 | 281 | 0.0 | 0.0 | 0.00 | 0.00 | 0.00 | 85 | 1019.2 |
| 20260503011548 | 38 | 281 | 0.0 | 0.0 | 0.00 | 0.00 | 0.00 | 84 | 1019.1 |
| 20260503010050 | 39 | 281 | 0.0 | 0.0 | 0.00 | 0.00 | 0.00 | 85 | 1019.2 |
| 20260503004518 | 40 | 281 | 0.0 | 0.0 | 0.00 | 0.00 | 0.00 | 84 | 1019.3 |
| 20260503003027 | 40 | 281 | 0.0 | 0.0 | 0.00 | 0.00 | 0.00 | 84 | 1019.4 |
| 20260503001534 | 40 | 281 | 0.0 | 0.0 | 0.00 | 0.00 | 0.00 | 84 | 1019.5 |
| 20260503000050 | 41 | 281 | 0.0 | 0.0 | 0.00 | 0.00 | 0.00 | 82 | 1019.5 |
| 20260502234506 | 42 | 281 | 0.0 | 0.0 | 0.00 | 0.00 | 0.00 | 79 | 1019.6 |
| 20260502233018 | 42 | 281 | 0.0 | 1.0 | 0.00 | 0.00 | 0.00 | 79 | 1019.6 |
| 20260502231546 | 43 | 281 | 0.0 | 0.0 | 0.00 | 0.00 | 0.00 | 80 | 1019.9 |
| 20260502230025 | 43 | 281 | 0.0 | 1.0 | 0.00 | 0.00 | 0.00 | 80 | 1019.8 |
| 20260502224542 | 44 | 281 | 0.0 | 0.0 | 0.00 | 0.00 | 0.00 | 78 | 1020.0 |
| 20260502223047 | 45 | 281 | 0.0 | 0.0 | 0.00 | 0.00 | 0.00 | 75 | 1020.0 |
| 20260502221502 | 45 | 281 | 0.0 | 1.0 | 0.00 | 0.00 | 0.00 | 74 | 1020.1 |
| 20260502220012 | 46 | 281 | 0.0 | 0.0 | 0.00 | 0.00 | 0.00 | 74 | 1020.0 |
| 20260502214526 | 47 | 281 | 0.0 | 0.0 | 0.00 | 0.00 | 0.00 | 74 | 1020.0 |
| 20260502213028 | 47 | 281 | 0.0 | 0.0 | 0.00 | 0.00 | 0.00 | 73 | 1020.0 |
| 20260502211553 | 48 | 281 | 0.0 | 0.0 | 0.00 | 0.00 | 0.00 | 71 | 1020.1 |
| 20260502210004 | 49 | 281 | 0.0 | 1.0 | 0.00 | 0.00 | 0.00 | 71 | 1020.3 |
| 20260502204530 | 50 | 280 | 0.0 | 1.0 | 0.00 | 0.00 | 0.00 | 69 | 1020.3 |
| 20260502203104 | 51 | 280 | 0.0 | 1.0 | 0.00 | 0.00 | 0.00 | 67 | 1020.3 |
| 20260502201550 | 51 | 280 | 0.0 | 2.0 | 0.00 | 0.00 | 0.00 | 67 | 1020.3 |
| 20260502200004 | 51 | 272 | 0.0 | 1.0 | 0.00 | 0.00 | 0.00 | 70 | 1020.4 |
| 20260502194526 | 52 | 272 | 0.0 | 0.0 | 0.00 | 0.00 | 0.00 | 68 | 1020.5 |
| 20260502193037 | 53 | 272 | 0.0 | 1.0 | 0.00 | 0.00 | 0.00 | 67 | 1020.2 |
| 20260502191555 | 54 | 272 | 0.0 | 0.0 | 0.00 | 0.00 | 0.00 | 64 | 1020.2 |
| 20260502190007 | 55 | 272 | 0.0 | 1.0 | 0.00 | 0.00 | 0.00 | 61 | 1020.1 |
| 20260502184507 | 57 | 272 | 0.0 | 1.0 | 0.00 | 0.00 | 0.00 | 58 | 1020.0 |
| 20260502183029 | 59 | 268 | 0.0 | 1.0 | 0.00 | 0.00 | 0.00 | 56 | 1019.9 |
| 20260502181551 | 61 | 267 | 0.0 | 1.0 | 0.00 | 0.00 | 0.00 | 55 | 1019.8 |
| 20260502163003 | 73 | 118 | 0.0 | 3.0 | 0.00 | 0.00 | 0.00 | 31 | 1020.3 |
| 20260502161526 | 73 | 127 | 0.0 | 3.0 | 0.00 | 0.00 | 0.00 | 33 | 1020.4 |
| 20260502151541 | 73 | 117 | 1.0 | 4.0 | 0.00 | 0.00 | 0.00 | 32 | 1021.2 |
| 20260502123008 | 71 | 293 | 0.0 | 3.0 | 0.00 | 0.00 | 0.00 | 37 | 1023.0 |
| 20260502121528 | 71 | 18 | 1.0 | 7.0 | 0.00 | 0.00 | 0.00 | 37 | 1023.1 |
| 20260502114549 | 71 | 114 | 0.0 | 4.0 | 0.00 | 0.00 | 0.00 | 39 | 1023.5 |
| 20260502113054 | 70 | 257 | 0.0 | 5.0 | 0.00 | 0.00 | 0.00 | 40 | 1023.7 |
| 20260502111511 | 70 | 227 | 1.0 | 5.0 | 0.00 | 0.00 | 0.00 | 40 | 1023.9 |
| 20260502110023 | 70 | 102 | 0.0 | 6.0 | 0.00 | 0.00 | 0.00 | 41 | 1024.0 |
| 20260502104537 | 69 | 46 | 0.0 | 5.0 | 0.00 | 0.00 | 0.00 | 41 | 1024.3 |
| 20260502103055 | 68 | 122 | 1.0 | 5.0 | 0.00 | 0.00 | 0.00 | 40 | 1024.5 |
| 20260502101546 | 68 | 131 | 2.0 | 5.0 | 0.00 | 0.00 | 0.00 | 42 | 1024.6 |
| 20260502100104 | 67 | 339 | 1.0 | 5.0 | 0.00 | 0.00 | 0.00 | 41 | 1024.8 |
| 20260502091526 | 66 | 39 | 1.0 | 4.0 | 0.00 | 0.00 | 0.00 | 44 | 1025.3 |
| 20260502070025 | 61 | 126 | 0.0 | 2.0 | 0.00 | 0.00 | 0.00 | 60 | 1026.2 |
| 20260502064535 | 58 | 104 | 0.0 | 2.0 | 0.00 | 0.00 | 0.00 | 68 | 1026.4 |
| 20260502063052 | 57 | 103 | 0.0 | 2.0 | 0.00 | 0.00 | 0.00 | 66 | 1026.4 |
| 20260502061605 | 56 | 119 | 0.0 | 2.0 | 0.00 | 0.00 | 0.00 | 67 | 1026.4 |
| 20260502060020 | 53 | 119 | 0.0 | 1.0 | 0.00 | 0.00 | 0.00 | 72 | 1026.6 |
| 20260502054538 | 48 | 119 | 0.0 | 1.0 | 0.00 | 0.00 | 0.00 | 78 | 1026.6 |
| 20260502053037 | 45 | 119 | 0.0 | 1.0 | 0.00 | 0.00 | 0.00 | 82 | 1026.4 |
| 20260502051500 | 42 | 124 | 0.0 | 1.0 | 0.00 | 0.00 | 0.00 | 85 | 1026.4 |
| 20260502050011 | 40 | 270 | 0.0 | 0.0 | 0.00 | 0.00 | 0.00 | 87 | 1026.2 |
| 20260502044545 | 38 | 270 | 0.0 | 0.0 | 0.00 | 0.00 | 0.00 | 91 | 1026.3 |
| 20260502043045 | 37 | 270 | 0.0 | 0.0 | 0.00 | 0.00 | 0.00 | 91 | 1026.2 |
| 20260502041515 | 36 | 270 | 0.0 | 0.0 | 0.00 | 0.00 | 0.00 | 90 | 1026.2 |
| 20260502040034 | 36 | 286 | 0.0 | 0.0 | 0.00 | 0.00 | 0.00 | 90 | 1026.1 |
| 20260502034554 | 36 | 286 | 0.0 | 0.0 | 0.00 | 0.00 | 0.00 | 90 | 1026.1 |
| 20260502033046 | 36 | 286 | 0.0 | 2.0 | 0.00 | 0.00 | 0.00 | 90 | 1026.0 |
| 20260502031603 | 37 | 286 | 0.0 | 0.0 | 0.00 | 0.00 | 0.00 | 90 | 1026.1 |
| 20260502030049 | 37 | 286 | 0.0 | 0.0 | 0.00 | 0.00 | 0.00 | 90 | 1026.0 |
| 20260502024522 | 37 | 286 | 0.0 | 0.0 | 0.00 | 0.00 | 0.00 | 90 | 1026.2 |
| 20260502023016 | 38 | 286 | 0.0 | 0.0 | 0.00 | 0.00 | 0.00 | 89 | 1026.3 |
| 20260502021511 | 38 | 286 | 0.0 | 0.0 | 0.00 | 0.00 | 0.00 | 89 | 1026.3 |
| 20260502020007 | 38 | 286 | 0.0 | 0.0 | 0.00 | 0.00 | 0.00 | 89 | 1026.3 |
| 20260502014509 | 38 | 286 | 0.0 | 0.0 | 0.00 | 0.00 | 0.00 | 87 | 1026.3 |